OBJECT D, 64090

Orbit data source: Space-Track

You're viewing an Uncataloged Satellite

Recently launched and/or uncataloged satellites may have evolving metadata. Metadata may include but not limited to: Owner, Maufacturer, Bus, Motor, and Mission.

OBJECT D, 64090 is a Chinese satellite in SSO that was launched on Wed, 21 May 2025 UTC via a LIJIAN-1 launch vehicle from the Jiuquan Satellite Launch Center, China (JSC). Unknown objects in Earth's orbit typically refer to objects detected orbiting the Earth but have not yet been identified or cataloged. These objects could be anything from previously untracked satellites, spent rocket stages, debris from satellite collisions, or even natural meteoroids temporarily captured by Earth's gravity.

Loading next visibility...
Identifier
64090, 2025-108D
Orbit
SSO
Country
Flag of CNCN / PRC
Related business
None
Manufacturer
Unknown
Mission
Operational Commercial Imaging
Bus & Motor
Unknown
Mass
Unknown
Launch date (UTC)
2025-05-21 (1 year ago)
Launch vehicle
LIJIAN-1
Launch site
Jiuquan Satellite Launch Center, China (JSC)
Object type
Unknown
Shape & HBR
Box, 0.7 m
Radar Cross Section
0.375 m², Medium (>0.1 m² and < 1m²)

Expand to show TLE details & history
Last TLE update: 9 hours ago

TLE from 9 hours ago
0 OBJECT D
1 64090U 25108D   26171.47781088  .00004234  00000-0  20612-3 0  9992
2 64090  97.4685 247.0707 0011764   1.1084 359.0174 15.18859858 59865
Epoch: 2026-06-20T11:28Z
TLE epoch observation values (Epoch: 2026-06-20T11:28:02.860Z)
Latitude
-0.00003°
Longitude
166.36692°
Altitude
504.269 km
Speed
7.617 km/s
True Right ascension
16h 28m 16s
True Declination
0° 00' 00"
Sunlit
Object was in full shadow at epoch
Visualization orbit readout
Latitude
Unknown
Longitude
Unknown
Altitude
Unknown
Speed
Unknown
Apparent Right ascension
Unknown
Apparent Declination
Unknown
Sunlit
N/A
Visualization observer readout
Local Sidereal Time
07:19:13
Azimuth
Unknown
Elevation
Unknown
Doppler factor
Unknown
Orbital elements
Apogee altitude
514.354 km
Perigee altitude
498.156 km
Semi-major axis
6,884.392 km
Eccentricity
0.00118
Inclination
97.4685°
RAAN
247.0707°
Arg. of periapsis
1.1084°
True anomaly
359.01508°
Mean anomaly
359.0174°
Eccentric anomaly
359.01624°
Mean motion
3.79966 °/min
Orbital period
94.75 mins
BSTAR
0.00020612
Loading maneuver chart data...
Computing Atmospheric mass density...
Loading historical data...
Loading historical data...
Loading historical data...
Loading historical data...
Loading historical data...
Loading historical data...
Loading historical data...
Other satellites on launch #108 in the year 2025 (2025-05-21 UTC)

Documentation

Showing up to 5 results
|